Time,TemperatureF,DewpointF,PressureIn,WindDirection,WindDirectionDegrees,WindSpeedMPH,WindSpeedGustMPH,Humidity,HourlyPrecipIn,Conditions,Clouds,dailyrainin,SoftwareType,DateUTC
2013-11-03 00:00:00,42.3,41.0,29.10,NW,315,4.0,8.0,96,0.00,,,0.00,Rainwise IP-100,2013-11-03 04:00:00,
2013-11-03 00:01:00,42.2,41.0,29.10,NW,315,7.0,8.0,96,0.00,,,0.00,Rainwise IP-100,2013-11-03 04:01:00,
2013-11-03 00:06:00,41.9,41.0,29.10,NW,315,7.0,12.0,98,0.00,,,0.00,Rainwise IP-100,2013-11-03 04:06:00,
2013-11-03 00:11:00,41.8,41.0,29.10,North,360,4.0,10.0,98,0.00,,,0.00,Rainwise IP-100,2013-11-03 04:11:00,
2013-11-03 00:16:00,41.6,42.0,29.11,NW,315,7.0,9.0,99,0.00,,,0.00,Rainwise IP-100,2013-11-03 04:16:00,
2013-11-03 00:21:00,41.4,40.0,29.11,NW,315,1.0,9.0,97,0.00,,,0.00,Rainwise IP-100,2013-11-03 04:21:00,
2013-11-03 00:26:00,41.3,41.0,29.11,NNW,337,4.0,12.0,99,0.00,,,0.00,Rainwise IP-100,2013-11-03 04:26:00,
2013-11-03 00:31:00,41.0,41.0,29.11,WNW,292,5.0,11.0,99,0.00,,,0.00,Rainwise IP-100,2013-11-03 04:31:00,
2013-11-03 00:37:00,40.9,41.0,29.11,NW,315,5.0,7.0,99,0.00,,,0.00,Rainwise IP-100,2013-11-03 04:37:00,
2013-11-03 00:42:00,40.8,41.0,29.11,NW,315,6.0,10.0,99,0.00,,,0.00,Rainwise IP-100,2013-11-03 04:42:00,
2013-11-03 00:47:00,40.8,41.0,29.12,WNW,292,6.0,10.0,99,0.00,,,0.00,Rainwise IP-100,2013-11-03 04:47:00,
2013-11-03 00:52:00,40.7,41.0,29.12,NW,315,4.0,7.0,99,0.00,,,0.00,Rainwise IP-100,2013-11-03 04:52:00,
2013-11-03 00:57:00,40.4,40.0,29.12,NNE,22,4.0,9.0,99,0.00,,,0.00,Rainwise IP-100,2013-11-03 04:57:00,
2013-11-03 01:02:00,39.8,40.0,29.12,NW,315,6.0,9.0,99,0.00,,,0.00,Rainwise IP-100,2013-11-03 05:02:00,
2013-11-03 01:07:00,39.7,39.0,29.12,WNW,292,7.0,10.0,97,0.00,,,0.00,Rainwise IP-100,2013-11-03 05:07:00,
2013-11-03 01:12:00,39.5,39.0,29.12,NNE,22,5.0,9.0,97,0.00,,,0.00,Rainwise IP-100,2013-11-03 05:12:00,
2013-11-03 01:18:00,39.1,39.0,29.12,NNW,337,3.0,7.0,98,0.00,,,0.00,Rainwise IP-100,2013-11-03 05:18:00,
2013-11-03 01:23:00,38.7,39.0,29.12,NNW,337,4.0,8.0,98,0.00,,,0.00,Rainwise IP-100,2013-11-03 05:23:00,
2013-11-03 01:28:00,38.5,38.0,29.12,NNW,337,4.0,10.0,97,0.00,,,0.00,Rainwise IP-100,2013-11-03 05:28:00,
2013-11-03 01:33:00,38.3,38.0,29.12,NNW,337,2.0,9.0,98,0.00,,,0.00,Rainwise IP-100,2013-11-03 05:33:00,
2013-11-03 01:38:00,38.2,37.0,29.12,NNW,337,5.0,10.0,97,0.00,,,0.00,Rainwise IP-100,2013-11-03 05:38:00,
2013-11-03 01:43:00,38.1,38.0,29.12,North,360,4.0,9.0,98,0.00,,,0.00,Rainwise IP-100,2013-11-03 05:43:00,
2013-11-03 01:48:00,37.8,38.0,29.13,NW,315,3.0,9.0,98,0.00,,,0.00,Rainwise IP-100,2013-11-03 05:48:00,
2013-11-03 01:54:00,37.7,38.0,29.13,WNW,292,8.0,9.0,98,0.00,,,0.00,Rainwise IP-100,2013-11-03 05:54:00,
2013-11-03 01:59:00,37.6,38.0,29.13,West,270,3.0,10.0,98,0.00,,,0.00,Rainwise IP-100,2013-11-03 05:59:00,
2013-11-03 02:00:00,34.8,35.0,29.15,NW,315,3.0,6.0,100,0.00,,,0.00,Rainwise IP-100,2013-11-03 07:00:00,
2013-11-03 02:05:00,34.9,35.0,29.15,North,360,2.0,9.0,100,0.00,,,0.00,Rainwise IP-100,2013-11-03 07:05:00,
2013-11-03 02:10:00,34.9,35.0,29.15,WNW,292,3.0,7.0,100,0.00,,,0.00,Rainwise IP-100,2013-11-03 07:10:00,
2013-11-03 02:15:00,35.2,35.0,29.15,NNE,22,4.0,9.0,100,0.00,,,0.00,Rainwise IP-100,2013-11-03 07:15:00,
2013-11-03 02:21:00,35.9,36.0,29.16,NNW,337,4.0,10.0,100,0.00,,,0.00,Rainwise IP-100,2013-11-03 07:21:00,
2013-11-03 02:26:00,35.8,36.0,29.16,NNW,337,3.0,6.0,100,0.00,,,0.00,Rainwise IP-100,2013-11-03 07:26:00,
2013-11-03 02:31:00,35.1,35.0,29.16,NW,315,2.0,5.0,100,0.00,,,0.00,Rainwise IP-100,2013-11-03 07:31:00,
2013-11-03 02:36:00,34.9,35.0,29.16,NNW,337,1.0,6.0,100,0.00,,,0.00,Rainwise IP-100,2013-11-03 07:36:00,
2013-11-03 02:41:00,34.7,35.0,29.16,NNE,22,2.0,8.0,100,0.00,,,0.00,Rainwise IP-100,2013-11-03 07:41:00,
2013-11-03 02:46:00,34.7,35.0,29.17,NNW,337,0.0,6.0,100,0.00,,,0.00,Rainwise IP-100,2013-11-03 07:46:00,
2013-11-03 02:51:00,34.2,35.0,29.17,NNW,337,2.0,2.0,100,0.00,,,0.00,Rainwise IP-100,2013-11-03 07:51:00,
2013-11-03 02:57:00,33.7,35.0,29.17,NW,315,0.0,2.0,100,0.00,,,0.00,Rainwise IP-100,2013-11-03 07:57:00,
2013-11-03 03:02:00,33.3,33.0,29.17,NW,315,1.0,2.0,100,0.00,,,0.00,Rainwise IP-100,2013-11-03 08:02:00,
2013-11-03 03:07:00,32.9,33.0,29.17,NW,315,2.0,3.0,100,0.00,,,0.00,Rainwise IP-100,2013-11-03 08:07:00,
2013-11-03 03:12:00,33.1,33.0,29.17,North,360,1.0,4.0,100,0.00,,,0.00,Rainwise IP-100,2013-11-03 08:12:00,
2013-11-03 03:17:00,33.4,33.0,29.18,NW,315,2.0,6.0,100,0.00,,,0.00,Rainwise IP-100,2013-11-03 08:17:00,
2013-11-03 03:22:00,33.9,35.0,29.18,NNW,337,0.0,5.0,100,0.00,,,0.00,Rainwise IP-100,2013-11-03 08:22:00,
2013-11-03 03:27:00,33.9,35.0,29.19,NNW,337,0.0,6.0,100,0.00,,,0.00,Rainwise IP-100,2013-11-03 08:27:00,
2013-11-03 03:32:00,34.2,35.0,29.19,NNW,337,1.0,4.0,100,0.00,,,0.00,Rainwise IP-100,2013-11-03 08:32:00,
2013-11-03 03:38:00,34.1,35.0,29.19,NNW,337,1.0,5.0,100,0.00,,,0.00,Rainwise IP-100,2013-11-03 08:38:00,
2013-11-03 03:43:00,33.9,35.0,29.19,NNW,337,2.0,5.0,100,0.00,,,0.00,Rainwise IP-100,2013-11-03 08:43:00,
2013-11-03 03:48:00,33.9,35.0,29.19,North,360,4.0,7.0,100,0.00,,,0.00,Rainwise IP-100,2013-11-03 08:48:00,
2013-11-03 03:53:00,34.3,35.0,29.20,NW,315,3.0,8.0,100,0.00,,,0.00,Rainwise IP-100,2013-11-03 08:53:00,
2013-11-03 03:58:00,34.6,35.0,29.21,NW,315,1.0,7.0,100,0.00,,,0.00,Rainwise IP-100,2013-11-03 08:58:00,
2013-11-03 04:03:00,34.6,35.0,29.21,North,360,2.0,6.0,100,0.00,,,0.00,Rainwise IP-100,2013-11-03 09:03:00,
2013-11-03 04:08:00,34.5,35.0,29.21,NNW,337,5.0,8.0,100,0.00,,,0.00,Rainwise IP-100,2013-11-03 09:08:00,
2013-11-03 04:14:00,34.5,35.0,29.21,NNW,337,3.0,6.0,100,0.00,,,0.00,Rainwise IP-100,2013-11-03 09:14:00,
2013-11-03 04:19:00,34.6,35.0,29.21,NNW,337,7.0,9.0,100,0.00,,,0.00,Rainwise IP-100,2013-11-03 09:19:00,
2013-11-03 04:24:00,34.8,35.0,29.21,WNW,292,2.0,9.0,100,0.00,,,0.00,Rainwise IP-100,2013-11-03 09:24:00,
2013-11-03 04:29:00,34.9,35.0,29.22,NNE,22,7.0,9.0,100,0.00,,,0.00,Rainwise IP-100,2013-11-03 09:29:00,
2013-11-03 04:34:00,35.1,35.0,29.22,NNE,22,4.0,9.0,100,0.00,,,0.00,Rainwise IP-100,2013-11-03 09:34:00,
2013-11-03 04:39:00,35.2,35.0,29.22,NW,315,6.0,10.0,100,0.00,,,0.00,Rainwise IP-100,2013-11-03 09:39:00,
2013-11-03 04:44:00,35.6,36.0,29.23,NW,315,2.0,13.0,98,0.00,,,0.00,Rainwise IP-100,2013-11-03 09:44:00,
2013-11-03 04:49:00,35.7,35.0,29.23,NNE,22,2.0,12.0,97,0.00,,,0.00,Rainwise IP-100,2013-11-03 09:49:00,
2013-11-03 04:55:00,35.8,35.0,29.24,NNW,337,6.0,10.0,96,0.00,,,0.00,Rainwise IP-100,2013-11-03 09:55:00,
2013-11-03 05:00:00,35.6,35.0,29.24,North,360,2.0,9.0,96,0.00,,,0.00,Rainwise IP-100,2013-11-03 10:00:00,
2013-11-03 05:05:00,35.6,35.0,29.25,North,360,6.0,11.0,96,0.00,,,0.00,Rainwise IP-100,2013-11-03 10:05:00,
2013-11-03 05:10:00,35.6,35.0,29.25,NNE,22,3.0,10.0,96,0.00,,,0.00,Rainwise IP-100,2013-11-03 10:10:00,
2013-11-03 05:15:00,35.6,35.0,29.25,North,360,4.0,8.0,96,0.00,,,0.00,Rainwise IP-100,2013-11-03 10:15:00,
2013-11-03 05:20:00,35.5,35.0,29.26,NNE,22,8.0,10.0,96,0.00,,,0.00,Rainwise IP-100,2013-11-03 10:20:00,
2013-11-03 05:25:00,35.5,35.0,29.26,North,360,4.0,10.0,96,0.00,,,0.00,Rainwise IP-100,2013-11-03 10:25:00,
2013-11-03 05:31:00,35.4,33.0,29.26,NNW,337,1.0,10.0,96,0.00,,,0.00,Rainwise IP-100,2013-11-03 10:31:00,
2013-11-03 05:36:00,35.3,33.0,29.26,NW,315,3.0,8.0,96,0.00,,,0.00,Rainwise IP-100,2013-11-03 10:36:00,
2013-11-03 05:41:00,35.2,33.0,29.27,NNE,22,4.0,10.0,96,0.00,,,0.00,Rainwise IP-100,2013-11-03 10:41:00,
2013-11-03 05:46:00,35.1,33.0,29.27,North,360,1.0,9.0,96,0.00,,,0.00,Rainwise IP-100,2013-11-03 10:46:00,
2013-11-03 05:51:00,35.0,33.0,29.27,NNE,22,6.0,7.0,96,0.00,,,0.00,Rainwise IP-100,2013-11-03 10:51:00,
2013-11-03 05:56:00,35.2,33.0,29.28,NW,315,3.0,12.0,95,0.00,,,0.00,Rainwise IP-100,2013-11-03 10:56:00,
2013-11-03 06:01:00,35.1,33.0,29.28,North,360,1.0,9.0,96,0.00,,,0.00,Rainwise IP-100,2013-11-03 11:01:00,
2013-11-03 06:06:00,35.0,33.0,29.28,ENE,67,2.0,7.0,96,0.00,,,0.00,Rainwise IP-100,2013-11-03 11:06:00,
2013-11-03 06:12:00,34.8,33.0,29.28,North,360,3.0,9.0,97,0.00,,,0.00,Rainwise IP-100,2013-11-03 11:12:00,
2013-11-03 06:17:00,34.7,33.0,29.29,NE,45,5.0,9.0,97,0.00,,,0.00,Rainwise IP-100,2013-11-03 11:17:00,
2013-11-03 06:22:00,34.7,33.0,29.29,NNW,337,5.0,9.0,97,0.00,,,0.00,Rainwise IP-100,2013-11-03 11:22:00,
2013-11-03 06:27:00,34.6,33.0,29.29,North,360,5.0,8.0,97,0.00,,,0.00,Rainwise IP-100,2013-11-03 11:27:00,
2013-11-03 06:32:00,34.5,33.0,29.29,NW,315,4.0,9.0,96,0.00,,,0.00,Rainwise IP-100,2013-11-03 11:32:00,
2013-11-03 06:37:00,34.4,33.0,29.29,NNE,22,9.0,9.0,97,0.00,,,0.00,Rainwise IP-100,2013-11-03 11:37:00,
2013-11-03 06:42:00,34.4,35.0,29.29,NNE,22,2.0,9.0,98,0.00,,,0.00,Rainwise IP-100,2013-11-03 11:42:00,
2013-11-03 06:48:00,34.4,35.0,29.30,NNW,337,2.0,9.0,98,0.00,,,0.00,Rainwise IP-100,2013-11-03 11:48:00,
2013-11-03 06:53:00,34.3,35.0,29.30,ENE,67,3.0,6.0,99,0.00,,,0.00,Rainwise IP-100,2013-11-03 11:53:00,
2013-11-03 06:58:00,34.4,35.0,29.30,NNE,22,2.0,9.0,99,0.00,,,0.00,Rainwise IP-100,2013-11-03 11:58:00,
2013-11-03 07:03:00,34.4,35.0,29.31,NNW,337,2.0,6.0,99,0.00,,,0.00,Rainwise IP-100,2013-11-03 12:03:00,
2013-11-03 07:08:00,34.7,33.0,29.31,NE,45,1.0,6.0,97,0.00,,,0.00,Rainwise IP-100,2013-11-03 12:08:00,
2013-11-03 07:13:00,34.9,35.0,29.32,NNE,22,3.0,6.0,98,0.00,,,0.00,Rainwise IP-100,2013-11-03 12:13:00,
2013-11-03 07:18:00,35.1,33.0,29.32,NW,315,6.0,8.0,95,0.00,,,0.00,Rainwise IP-100,2013-11-03 12:18:00,
2013-11-03 07:23:00,35.0,33.0,29.33,North,360,5.0,10.0,95,0.00,,,0.00,Rainwise IP-100,2013-11-03 12:23:00,
2013-11-03 07:29:00,35.0,32.0,29.33,West,270,6.0,11.0,90,0.00,,,0.00,Rainwise IP-100,2013-11-03 12:29:00,
2013-11-03 07:34:00,34.9,32.0,29.33,NNW,337,5.0,10.0,91,0.00,,,0.00,Rainwise IP-100,2013-11-03 12:34:00,
2013-11-03 07:39:00,35.0,32.0,29.33,NW,315,3.0,10.0,90,0.00,,,0.00,Rainwise IP-100,2013-11-03 12:39:00,
2013-11-03 07:44:00,34.9,32.0,29.34,NW,315,5.0,10.0,89,0.00,,,0.00,Rainwise IP-100,2013-11-03 12:44:00,
2013-11-03 07:49:00,34.6,32.0,29.34,NW,315,5.0,9.0,89,0.00,,,0.00,Rainwise IP-100,2013-11-03 12:49:00,
2013-11-03 07:54:00,34.3,32.0,29.34,NNE,22,4.0,7.0,91,0.00,,,0.00,Rainwise IP-100,2013-11-03 12:54:00,
2013-11-03 07:59:00,34.1,32.0,29.35,North,360,4.0,10.0,89,0.00,,,0.00,Rainwise IP-100,2013-11-03 12:59:00,
2013-11-03 08:05:00,34.2,31.0,29.35,NNW,337,7.0,10.0,86,0.00,,,0.00,Rainwise IP-100,2013-11-03 13:05:00,
2013-11-03 08:10:00,34.2,31.0,29.35,NW,315,5.0,11.0,85,0.00,,,0.00,Rainwise IP-100,2013-11-03 13:10:00,
2013-11-03 08:15:00,34.1,31.0,29.35,WNW,292,9.0,9.0,87,0.00,,,0.00,Rainwise IP-100,2013-11-03 13:15:00,
2013-11-03 08:20:00,34.4,31.0,29.36,NNW,337,3.0,10.0,84,0.00,,,0.00,Rainwise IP-100,2013-11-03 13:20:00,
2013-11-03 08:25:00,34.5,29.0,29.37,NW,315,7.0,12.0,81,0.00,,,0.00,Rainwise IP-100,2013-11-03 13:25:00,
2013-11-03 08:30:00,34.6,29.0,29.37,NNW,337,7.0,10.0,81,0.00,,,0.00,Rainwise IP-100,2013-11-03 13:30:00,
2013-11-03 08:35:00,34.5,29.0,29.37,NNE,22,4.0,10.0,82,0.00,,,0.00,Rainwise IP-100,2013-11-03 13:35:00,
2013-11-03 08:40:00,34.8,29.0,29.37,NNW,337,3.0,9.0,82,0.00,,,0.00,Rainwise IP-100,2013-11-03 13:40:00,
2013-11-03 08:46:00,35.4,29.0,29.37,ENE,67,6.0,9.0,82,0.00,,,0.00,Rainwise IP-100,2013-11-03 13:46:00,
2013-11-03 08:51:00,36.5,31.0,29.37,NE,45,7.0,12.0,77,0.00,,,0.00,Rainwise IP-100,2013-11-03 13:51:00,
2013-11-03 08:56:00,36.6,31.0,29.37,NNE,22,7.0,10.0,78,0.00,,,0.00,Rainwise IP-100,2013-11-03 13:56:00,
2013-11-03 09:01:00,36.2,29.0,29.37,NE,45,5.0,11.0,78,0.00,,,0.00,Rainwise IP-100,2013-11-03 14:01:00,
2013-11-03 09:06:00,36.0,29.0,29.38,NNW,337,3.0,10.0,78,0.00,,,0.00,Rainwise IP-100,2013-11-03 14:06:00,
2013-11-03 09:11:00,36.2,29.0,29.38,NNE,22,11.0,11.0,77,0.00,,,0.00,Rainwise IP-100,2013-11-03 14:11:00,
2013-11-03 09:16:00,36.2,29.0,29.38,WNW,292,2.0,11.0,77,0.00,,,0.00,Rainwise IP-100,2013-11-03 14:16:00,
2013-11-03 09:22:00,36.5,31.0,29.39,NE,45,5.0,10.0,79,0.00,,,0.00,Rainwise IP-100,2013-11-03 14:22:00,
2013-11-03 09:27:00,36.9,31.0,29.39,North,360,6.0,9.0,76,0.00,,,0.00,Rainwise IP-100,2013-11-03 14:27:00,
2013-11-03 09:32:00,36.7,29.0,29.39,NW,315,9.0,13.0,71,0.00,,,0.00,Rainwise IP-100,2013-11-03 14:32:00,
2013-11-03 09:37:00,36.8,29.0,29.39,NW,315,8.0,10.0,72,0.00,,,0.00,Rainwise IP-100,2013-11-03 14:37:00,
2013-11-03 09:42:00,36.9,29.0,29.39,NNW,337,6.0,12.0,71,0.00,,,0.00,Rainwise IP-100,2013-11-03 14:42:00,
2013-11-03 09:47:00,36.8,29.0,29.39,NNW,337,3.0,12.0,71,0.00,,,0.00,Rainwise IP-100,2013-11-03 14:47:00,
2013-11-03 09:52:00,36.9,28.0,29.40,West,270,3.0,13.0,69,0.00,,,0.00,Rainwise IP-100,2013-11-03 14:52:00,
2013-11-03 09:57:00,37.0,28.0,29.40,NNE,22,13.0,13.0,66,0.00,,,0.00,Rainwise IP-100,2013-11-03 14:57:00,
2013-11-03 10:03:00,36.8,26.0,29.41,NNE,22,3.0,13.0,62,0.00,,,0.00,Rainwise IP-100,2013-11-03 15:03:00,
2013-11-03 10:08:00,36.9,24.0,29.41,WNW,292,6.0,13.0,61,0.00,,,0.00,Rainwise IP-100,2013-11-03 15:08:00,
2013-11-03 10:13:00,37.1,24.0,29.41,NNE,22,6.0,15.0,59,0.00,,,0.00,Rainwise IP-100,2013-11-03 15:13:00,
2013-11-03 10:18:00,37.7,26.0,29.42,NNW,337,9.0,13.0,59,0.00,,,0.00,Rainwise IP-100,2013-11-03 15:18:00,
2013-11-03 10:23:00,38.0,24.0,29.42,North,360,8.0,12.0,58,0.00,,,0.00,Rainwise IP-100,2013-11-03 15:23:00,
2013-11-03 10:28:00,38.0,24.0,29.42,ENE,67,10.0,17.0,58,0.00,,,0.00,Rainwise IP-100,2013-11-03 15:28:00,
2013-11-03 10:33:00,38.4,26.0,29.42,ENE,67,6.0,12.0,60,0.00,,,0.00,Rainwise IP-100,2013-11-03 15:33:00,
2013-11-03 10:39:00,38.8,26.0,29.42,NNW,337,5.0,11.0,60,0.00,,,0.00,Rainwise IP-100,2013-11-03 15:39:00,
2013-11-03 10:44:00,39.7,28.0,29.42,North,360,6.0,10.0,59,0.00,,,0.00,Rainwise IP-100,2013-11-03 15:44:00,
2013-11-03 10:49:00,40.4,26.0,29.42,ENE,67,7.0,10.0,56,0.00,,,0.00,Rainwise IP-100,2013-11-03 15:49:00,
2013-11-03 10:54:00,40.2,24.0,29.42,North,360,6.0,10.0,53,0.00,,,0.00,Rainwise IP-100,2013-11-03 15:54:00,
2013-11-03 10:59:00,40.4,26.0,29.42,NE,45,5.0,12.0,54,0.00,,,0.00,Rainwise IP-100,2013-11-03 15:59:00,
2013-11-03 11:04:00,40.4,26.0,29.42,NW,315,2.0,10.0,56,0.00,,,0.00,Rainwise IP-100,2013-11-03 16:04:00,
2013-11-03 11:09:00,41.0,26.0,29.43,North,360,3.0,10.0,54,0.00,,,0.00,Rainwise IP-100,2013-11-03 16:09:00,
2013-11-03 11:14:00,40.6,24.0,29.43,NE,45,7.0,11.0,51,0.00,,,0.00,Rainwise IP-100,2013-11-03 16:14:00,
2013-11-03 11:20:00,40.5,26.0,29.42,North,360,5.0,9.0,54,0.00,,,0.00,Rainwise IP-100,2013-11-03 16:20:00,
2013-11-03 11:25:00,40.8,23.0,29.42,NNW,337,4.0,9.0,46,0.00,,,0.00,Rainwise IP-100,2013-11-03 16:25:00,
2013-11-03 11:30:00,41.5,23.0,29.43,WNW,292,7.0,12.0,46,0.00,,,0.00,Rainwise IP-100,2013-11-03 16:30:00,
2013-11-03 11:35:00,41.9,24.0,29.42,NNE,22,4.0,9.0,49,0.00,,,0.00,Rainwise IP-100,2013-11-03 16:35:00,
2013-11-03 11:40:00,42.3,26.0,29.42,West,270,4.0,10.0,51,0.00,,,0.00,Rainwise IP-100,2013-11-03 16:40:00,
2013-11-03 11:45:00,42.7,24.0,29.42,NE,45,12.0,12.0,46,0.00,,,0.00,Rainwise IP-100,2013-11-03 16:45:00,
2013-11-03 11:50:00,42.1,21.0,29.43,NNW,337,6.0,15.0,39,0.00,,,0.00,Rainwise IP-100,2013-11-03 16:50:00,
2013-11-03 11:56:00,42.4,21.0,29.42,NW,315,5.0,12.0,42,0.00,,,0.00,Rainwise IP-100,2013-11-03 16:56:00,
2013-11-03 12:01:00,42.6,21.0,29.42,WNW,292,5.0,10.0,41,0.00,,,0.00,Rainwise IP-100,2013-11-03 17:01:00,
2013-11-03 12:06:00,42.7,21.0,29.42,NNW,337,6.0,9.0,41,0.00,,,0.00,Rainwise IP-100,2013-11-03 17:06:00,
2013-11-03 12:11:00,43.6,23.0,29.42,North,360,1.0,8.0,41,0.00,,,0.00,Rainwise IP-100,2013-11-03 17:11:00,
2013-11-03 12:16:00,43.8,23.0,29.42,NNW,337,8.0,10.0,41,0.00,,,0.00,Rainwise IP-100,2013-11-03 17:16:00,
2013-11-03 12:21:00,43.5,21.0,29.42,ENE,67,4.0,11.0,38,0.00,,,0.00,Rainwise IP-100,2013-11-03 17:21:00,
2013-11-03 12:26:00,43.1,21.0,29.43,NNW,337,4.0,12.0,41,0.00,,,0.00,Rainwise IP-100,2013-11-03 17:26:00,
2013-11-03 12:31:00,43.3,21.0,29.43,NE,45,3.0,8.0,41,0.00,,,0.00,Rainwise IP-100,2013-11-03 17:31:00,
2013-11-03 12:37:00,43.4,21.0,29.43,NNE,22,9.0,11.0,41,0.00,,,0.00,Rainwise IP-100,2013-11-03 17:37:00,
2013-11-03 12:42:00,43.3,23.0,29.43,ESE,112,2.0,10.0,42,0.00,,,0.00,Rainwise IP-100,2013-11-03 17:42:00,
2013-11-03 12:47:00,43.2,21.0,29.43,NNE,22,6.0,10.0,41,0.00,,,0.00,Rainwise IP-100,2013-11-03 17:47:00,
2013-11-03 12:52:00,43.2,21.0,29.43,NNE,22,5.0,11.0,41,0.00,,,0.00,Rainwise IP-100,2013-11-03 17:52:00,
2013-11-03 12:57:00,43.6,23.0,29.43,ENE,67,6.0,11.0,42,0.00,,,0.00,Rainwise IP-100,2013-11-03 17:57:00,
2013-11-03 13:02:00,43.2,21.0,29.43,NW,315,7.0,12.0,41,0.00,,,0.00,Rainwise IP-100,2013-11-03 18:02:00,
2013-11-03 13:07:00,42.5,23.0,29.43,NW,315,6.0,11.0,42,0.00,,,0.00,Rainwise IP-100,2013-11-03 18:07:00,
2013-11-03 13:13:00,42.5,23.0,29.43,NNW,337,6.0,10.0,44,0.00,,,0.00,Rainwise IP-100,2013-11-03 18:13:00,
2013-11-03 13:18:00,42.5,23.0,29.43,North,360,7.0,10.0,44,0.00,,,0.00,Rainwise IP-100,2013-11-03 18:18:00,
2013-11-03 13:23:00,42.6,23.0,29.43,WNW,292,4.0,10.0,42,0.00,,,0.00,Rainwise IP-100,2013-11-03 18:23:00,
2013-11-03 13:28:00,42.8,23.0,29.43,NNE,22,0.0,14.0,44,0.00,,,0.00,Rainwise IP-100,2013-11-03 18:28:00,
2013-11-03 13:33:00,42.8,21.0,29.44,NW,315,5.0,12.0,41,0.00,,,0.00,Rainwise IP-100,2013-11-03 18:33:00,
2013-11-03 13:38:00,42.6,23.0,29.44,NNW,337,7.0,9.0,44,0.00,,,0.00,Rainwise IP-100,2013-11-03 18:38:00,
2013-11-03 13:43:00,42.9,23.0,29.44,NW,315,6.0,10.0,42,0.00,,,0.00,Rainwise IP-100,2013-11-03 18:43:00,
2013-11-03 13:48:00,42.8,23.0,29.44,NNW,337,5.0,13.0,42,0.00,,,0.00,Rainwise IP-100,2013-11-03 18:48:00,
2013-11-03 13:54:00,43.3,23.0,29.45,SW,225,3.0,7.0,42,0.00,,,0.00,Rainwise IP-100,2013-11-03 18:54:00,
2013-11-03 13:59:00,43.2,23.0,29.45,North,360,6.0,11.0,42,0.00,,,0.00,Rainwise IP-100,2013-11-03 18:59:00,
2013-11-03 14:04:00,43.2,23.0,29.45,NNW,337,5.0,12.0,42,0.00,,,0.00,Rainwise IP-100,2013-11-03 19:04:00,
2013-11-03 14:09:00,42.8,21.0,29.46,West,270,5.0,12.0,39,0.00,,,0.00,Rainwise IP-100,2013-11-03 19:09:00,
2013-11-03 14:14:00,42.7,23.0,29.46,NNE,22,11.0,11.0,42,0.00,,,0.00,Rainwise IP-100,2013-11-03 19:14:00,
2013-11-03 14:19:00,42.5,23.0,29.46,NNW,337,9.0,15.0,42,0.00,,,0.00,Rainwise IP-100,2013-11-03 19:19:00,
2013-11-03 14:24:00,42.2,21.0,29.46,WNW,292,8.0,10.0,41,0.00,,,0.00,Rainwise IP-100,2013-11-03 19:24:00,
2013-11-03 14:30:00,41.9,23.0,29.46,ENE,67,0.0,12.0,43,0.00,,,0.00,Rainwise IP-100,2013-11-03 19:30:00,
2013-11-03 14:35:00,42.2,23.0,29.46,East,90,6.0,12.0,43,0.00,,,0.00,Rainwise IP-100,2013-11-03 19:35:00,
2013-11-03 14:40:00,41.6,21.0,29.47,West,270,7.0,15.0,42,0.00,,,0.00,Rainwise IP-100,2013-11-03 19:40:00,
2013-11-03 14:45:00,41.2,21.0,29.47,West,270,8.0,12.0,42,0.00,,,0.00,Rainwise IP-100,2013-11-03 19:45:00,
2013-11-03 14:50:00,41.8,23.0,29.48,North,360,6.0,10.0,44,0.00,,,0.00,Rainwise IP-100,2013-11-03 19:50:00,
2013-11-03 14:55:00,41.6,21.0,29.48,WNW,292,3.0,13.0,42,0.00,,,0.00,Rainwise IP-100,2013-11-03 19:55:00,
2013-11-03 15:00:00,41.1,21.0,29.48,SW,225,5.0,12.0,43,0.00,,,0.00,Rainwise IP-100,2013-11-03 20:00:00,
2013-11-03 15:05:00,41.0,21.0,29.49,NW,315,3.0,11.0,43,0.00,,,0.00,Rainwise IP-100,2013-11-03 20:05:00,
2013-11-03 15:11:00,40.9,23.0,29.49,North,360,3.0,12.0,45,0.00,,,0.00,Rainwise IP-100,2013-11-03 20:11:00,
2013-11-03 15:16:00,40.7,21.0,29.49,WNW,292,7.0,12.0,43,0.00,,,0.00,Rainwise IP-100,2013-11-03 20:16:00,
2013-11-03 15:21:00,40.5,23.0,29.49,NNW,337,4.0,9.0,45,0.00,,,0.00,Rainwise IP-100,2013-11-03 20:21:00,
2013-11-03 15:26:00,40.5,21.0,29.49,NNW,337,8.0,11.0,43,0.00,,,0.00,Rainwise IP-100,2013-11-03 20:26:00,
2013-11-03 15:31:00,40.1,21.0,29.50,NW,315,9.0,15.0,44,0.00,,,0.00,Rainwise IP-100,2013-11-03 20:31:00,
2013-11-03 15:36:00,39.9,21.0,29.50,NNW,337,9.0,12.0,44,0.00,,,0.00,Rainwise IP-100,2013-11-03 20:36:00,
2013-11-03 15:41:00,39.6,21.0,29.50,NW,315,7.0,15.0,44,0.00,,,0.00,Rainwise IP-100,2013-11-03 20:41:00,
2013-11-03 15:47:00,39.5,21.0,29.50,WNW,292,12.0,14.0,44,0.00,,,0.00,Rainwise IP-100,2013-11-03 20:47:00,
2013-11-03 15:52:00,39.4,21.0,29.50,NW,315,1.0,12.0,44,0.00,,,0.00,Rainwise IP-100,2013-11-03 20:52:00,
2013-11-03 15:57:00,38.9,21.0,29.50,NW,315,6.0,10.0,46,0.00,,,0.00,Rainwise IP-100,2013-11-03 20:57:00,
2013-11-03 16:02:00,38.4,21.0,29.51,NW,315,6.0,10.0,46,0.00,,,0.00,Rainwise IP-100,2013-11-03 21:02:00,
2013-11-03 16:07:00,37.7,21.0,29.51,NW,315,5.0,10.0,48,0.00,,,0.00,Rainwise IP-100,2013-11-03 21:07:00,
2013-11-03 16:12:00,36.8,18.0,29.52,North,360,4.0,12.0,47,0.00,,,0.00,Rainwise IP-100,2013-11-03 21:12:00,
2013-11-03 16:17:00,36.3,18.0,29.52,NNW,337,4.0,11.0,49,0.00,,,0.00,Rainwise IP-100,2013-11-03 21:17:00,
2013-11-03 16:22:00,35.7,21.0,29.52,NNW,337,4.0,9.0,52,0.00,,,0.00,Rainwise IP-100,2013-11-03 21:22:00,
2013-11-03 16:28:00,35.0,18.0,29.52,WNW,292,9.0,16.0,52,0.00,,,0.00,Rainwise IP-100,2013-11-03 21:28:00,
2013-11-03 16:33:00,34.8,18.0,29.53,WNW,292,7.0,11.0,52,0.00,,,0.00,Rainwise IP-100,2013-11-03 21:33:00,
2013-11-03 16:38:00,34.5,18.0,29.53,NNW,337,3.0,12.0,51,0.00,,,0.00,Rainwise IP-100,2013-11-03 21:38:00,
2013-11-03 16:43:00,33.9,21.0,29.53,WNW,292,6.0,9.0,54,0.00,,,0.00,Rainwise IP-100,2013-11-03 21:43:00,
2013-11-03 16:48:00,33.7,21.0,29.53,NW,315,1.0,9.0,54,0.00,,,0.00,Rainwise IP-100,2013-11-03 21:48:00,
2013-11-03 16:53:00,33.4,18.0,29.53,NNW,337,4.0,9.0,55,0.00,,,0.00,Rainwise IP-100,2013-11-03 21:53:00,
2013-11-03 16:58:00,32.9,21.0,29.53,North,360,3.0,12.0,56,0.00,,,0.00,Rainwise IP-100,2013-11-03 21:58:00,
2013-11-03 17:04:00,32.9,21.0,29.54,NW,315,4.0,9.0,56,0.00,,,0.00,Rainwise IP-100,2013-11-03 22:04:00,
2013-11-03 17:09:00,32.9,18.0,29.54,North,360,6.0,11.0,55,0.00,,,0.00,Rainwise IP-100,2013-11-03 22:09:00,
2013-11-03 17:14:00,32.4,18.0,29.54,NW,315,2.0,8.0,57,0.00,,,0.00,Rainwise IP-100,2013-11-03 22:14:00,
2013-11-03 17:19:00,31.9,21.0,29.54,NNW,337,2.0,6.0,59,0.00,,,0.00,Rainwise IP-100,2013-11-03 22:19:00,
2013-11-03 17:24:00,31.9,18.0,29.54,NW,315,4.0,8.0,58,0.00,,,0.00,Rainwise IP-100,2013-11-03 22:24:00,
2013-11-03 17:29:00,31.7,18.0,29.54,NNW,337,3.0,8.0,57,0.00,,,0.00,Rainwise IP-100,2013-11-03 22:29:00,
2013-11-03 17:34:00,31.6,18.0,29.54,NNW,337,2.0,10.0,57,0.00,,,0.00,Rainwise IP-100,2013-11-03 22:34:00,
2013-11-03 17:39:00,31.3,18.0,29.54,NNW,337,4.0,9.0,58,0.00,,,0.00,Rainwise IP-100,2013-11-03 22:39:00,
2013-11-03 17:45:00,31.1,18.0,29.54,NNE,22,5.0,9.0,58,0.00,,,0.00,Rainwise IP-100,2013-11-03 22:45:00,
2013-11-03 17:50:00,30.9,18.0,29.54,North,360,0.0,7.0,58,0.00,,,0.00,Rainwise IP-100,2013-11-03 22:50:00,
2013-11-03 17:55:00,30.5,18.0,29.55,NW,315,3.0,6.0,60,0.00,,,0.00,Rainwise IP-100,2013-11-03 22:55:00,
2013-11-03 18:00:00,30.3,18.0,29.55,NNW,337,7.0,10.0,60,0.00,,,0.00,Rainwise IP-100,2013-11-03 23:00:00,
2013-11-03 18:05:00,30.2,18.0,29.55,NNW,337,1.0,8.0,60,0.00,,,0.00,Rainwise IP-100,2013-11-03 23:05:00,
2013-11-03 18:10:00,30.3,18.0,29.56,WNW,292,6.0,10.0,60,0.00,,,0.00,Rainwise IP-100,2013-11-03 23:10:00,
2013-11-03 18:15:00,30.2,18.0,29.56,NW,315,2.0,7.0,59,0.00,,,0.00,Rainwise IP-100,2013-11-03 23:15:00,
2013-11-03 18:21:00,30.2,18.0,29.56,NNW,337,3.0,8.0,60,0.00,,,0.00,Rainwise IP-100,2013-11-03 23:21:00,
2013-11-03 18:26:00,29.7,18.0,29.56,NW,315,4.0,6.0,61,0.00,,,0.00,Rainwise IP-100,2013-11-03 23:26:00,
2013-11-03 18:31:00,29.6,21.0,29.56,NW,315,6.0,7.0,62,0.00,,,0.00,Rainwise IP-100,2013-11-03 23:31:00,
2013-11-03 18:36:00,29.9,18.0,29.57,WNW,292,3.0,9.0,60,0.00,,,0.00,Rainwise IP-100,2013-11-03 23:36:00,
2013-11-03 18:41:00,30.1,18.0,29.57,WNW,292,5.0,9.0,59,0.00,,,0.00,Rainwise IP-100,2013-11-03 23:41:00,
2013-11-03 18:46:00,29.9,18.0,29.58,NW,315,5.0,10.0,59,0.00,,,0.00,Rainwise IP-100,2013-11-03 23:46:00,
2013-11-03 18:51:00,30.0,18.0,29.58,NW,315,4.0,10.0,59,0.00,,,0.00,Rainwise IP-100,2013-11-03 23:51:00,
2013-11-03 18:56:00,29.9,18.0,29.58,NNW,337,5.0,9.0,59,0.00,,,0.00,Rainwise IP-100,2013-11-03 23:56:00,
2013-11-03 19:02:00,29.7,18.0,29.58,WNW,292,4.0,10.0,60,0.00,,,0.00,Rainwise IP-100,2013-11-04 00:02:00,
2013-11-03 19:07:00,29.6,18.0,29.58,NNW,337,4.0,8.0,60,0.00,,,0.00,Rainwise IP-100,2013-11-04 00:07:00,
2013-11-03 19:12:00,29.3,18.0,29.58,WNW,292,2.0,8.0,61,0.00,,,0.00,Rainwise IP-100,2013-11-04 00:12:00,
2013-11-03 19:17:00,29.1,18.0,29.58,NNW,337,4.0,8.0,61,0.00,,,0.00,Rainwise IP-100,2013-11-04 00:17:00,
2013-11-03 19:22:00,28.9,18.0,29.58,NNW,337,3.0,9.0,61,0.00,,,0.00,Rainwise IP-100,2013-11-04 00:22:00,
2013-11-03 19:27:00,28.8,18.0,29.58,NW,315,6.0,7.0,62,0.00,,,0.00,Rainwise IP-100,2013-11-04 00:27:00,
2013-11-03 19:32:00,28.8,18.0,29.59,NNW,337,3.0,8.0,61,0.00,,,0.00,Rainwise IP-100,2013-11-04 00:32:00,
2013-11-03 19:38:00,29.1,18.0,29.60,NNW,337,5.0,9.0,60,0.00,,,0.00,Rainwise IP-100,2013-11-04 00:38:00,
2013-11-03 19:43:00,29.1,18.0,29.60,NNW,337,4.0,9.0,60,0.00,,,0.00,Rainwise IP-100,2013-11-04 00:43:00,
2013-11-03 19:48:00,29.2,18.0,29.60,NW,315,3.0,10.0,60,0.00,,,0.00,Rainwise IP-100,2013-11-04 00:48:00,
2013-11-03 19:53:00,28.9,18.0,29.60,North,360,4.0,8.0,60,0.00,,,0.00,Rainwise IP-100,2013-11-04 00:53:00,
2013-11-03 19:58:00,28.7,18.0,29.60,NW,315,6.0,7.0,60,0.00,,,0.00,Rainwise IP-100,2013-11-04 00:58:00,
2013-11-03 20:03:00,28.9,18.0,29.61,WNW,292,4.0,9.0,60,0.00,,,0.00,Rainwise IP-100,2013-11-04 01:03:00,
2013-11-03 20:08:00,28.8,18.0,29.61,NW,315,4.0,7.0,60,0.00,,,0.00,Rainwise IP-100,2013-11-04 01:08:00,
2013-11-03 20:13:00,28.6,18.0,29.61,NNE,22,4.0,8.0,60,0.00,,,0.00,Rainwise IP-100,2013-11-04 01:13:00,
2013-11-03 20:19:00,28.3,16.0,29.62,North,360,5.0,8.0,62,0.00,,,0.00,Rainwise IP-100,2013-11-04 01:19:00,
2013-11-03 20:24:00,28.2,16.0,29.62,NNE,22,2.0,7.0,62,0.00,,,0.00,Rainwise IP-100,2013-11-04 01:24:00,
2013-11-03 20:29:00,28.1,16.0,29.62,WNW,292,6.0,7.0,61,0.00,,,0.00,Rainwise IP-100,2013-11-04 01:29:00,
2013-11-03 20:34:00,28.2,16.0,29.62,NW,315,3.0,7.0,61,0.00,,,0.00,Rainwise IP-100,2013-11-04 01:34:00,
2013-11-03 20:39:00,27.9,16.0,29.63,WNW,292,2.0,7.0,62,0.00,,,0.00,Rainwise IP-100,2013-11-04 01:39:00,
2013-11-03 20:44:00,27.9,16.0,29.63,NW,315,1.0,7.0,62,0.00,,,0.00,Rainwise IP-100,2013-11-04 01:44:00,
2013-11-03 20:49:00,28.1,16.0,29.63,NW,315,4.0,8.0,61,0.00,,,0.00,Rainwise IP-100,2013-11-04 01:49:00,
2013-11-03 20:55:00,28.0,16.0,29.64,NW,315,4.0,7.0,62,0.00,,,0.00,Rainwise IP-100,2013-11-04 01:55:00,
2013-11-03 21:00:00,27.9,16.0,29.64,NNW,337,3.0,9.0,62,0.00,,,0.00,Rainwise IP-100,2013-11-04 02:00:00,
2013-11-03 21:05:00,27.9,16.0,29.64,WNW,292,3.0,8.0,61,0.00,,,0.00,Rainwise IP-100,2013-11-04 02:05:00,
2013-11-03 21:10:00,27.7,16.0,29.64,NNW,337,1.0,6.0,62,0.00,,,0.00,Rainwise IP-100,2013-11-04 02:10:00,
2013-11-03 21:15:00,27.3,16.0,29.64,NW,315,2.0,6.0,62,0.00,,,0.00,Rainwise IP-100,2013-11-04 02:15:00,
2013-11-03 21:20:00,26.9,16.0,29.64,NNW,337,0.0,6.0,62,0.00,,,0.00,Rainwise IP-100,2013-11-04 02:20:00,
2013-11-03 21:25:00,26.9,16.0,29.65,NW,315,2.0,6.0,63,0.00,,,0.00,Rainwise IP-100,2013-11-04 02:25:00,
2013-11-03 21:30:00,27.1,16.0,29.65,NW,315,2.0,7.0,63,0.00,,,0.00,Rainwise IP-100,2013-11-04 02:30:00,
2013-11-03 21:36:00,27.4,16.0,29.65,NW,315,1.0,10.0,63,0.00,,,0.00,Rainwise IP-100,2013-11-04 02:36:00,
2013-11-03 21:41:00,27.3,16.0,29.65,NW,315,2.0,7.0,62,0.00,,,0.00,Rainwise IP-100,2013-11-04 02:41:00,
2013-11-03 21:46:00,27.2,16.0,29.65,WNW,292,2.0,7.0,63,0.00,,,0.00,Rainwise IP-100,2013-11-04 02:46:00,
2013-11-03 21:51:00,27.1,16.0,29.66,NW,315,2.0,7.0,63,0.00,,,0.00,Rainwise IP-100,2013-11-04 02:51:00,
2013-11-03 21:56:00,26.7,18.0,29.66,WNW,292,4.0,6.0,65,0.00,,,0.00,Rainwise IP-100,2013-11-04 02:56:00,
2013-11-03 22:01:00,26.9,16.0,29.66,West,270,4.0,8.0,63,0.00,,,0.00,Rainwise IP-100,2013-11-04 03:01:00,
2013-11-03 22:06:00,26.9,16.0,29.66,NW,315,5.0,6.0,63,0.00,,,0.00,Rainwise IP-100,2013-11-04 03:06:00,
2013-11-03 22:12:00,26.9,16.0,29.66,WNW,292,4.0,6.0,63,0.00,,,0.00,Rainwise IP-100,2013-11-04 03:12:00,
2013-11-03 22:17:00,26.7,18.0,29.66,NNW,337,1.0,6.0,64,0.00,,,0.00,Rainwise IP-100,2013-11-04 03:17:00,
2013-11-03 22:22:00,26.5,18.0,29.66,North,360,4.0,5.0,65,0.00,,,0.00,Rainwise IP-100,2013-11-04 03:22:00,
2013-11-03 22:27:00,26.3,16.0,29.65,NNW,337,2.0,6.0,65,0.00,,,0.00,Rainwise IP-100,2013-11-04 03:27:00,
2013-11-03 22:32:00,26.5,18.0,29.67,NNW,337,1.0,7.0,65,0.00,,,0.00,Rainwise IP-100,2013-11-04 03:32:00,
2013-11-03 22:37:00,26.2,16.0,29.66,NW,315,1.0,5.0,64,0.00,,,0.00,Rainwise IP-100,2013-11-04 03:37:00,
2013-11-03 22:42:00,26.2,16.0,29.67,NW,315,2.0,7.0,66,0.00,,,0.00,Rainwise IP-100,2013-11-04 03:42:00,
2013-11-03 22:47:00,25.9,16.0,29.67,NNW,337,3.0,6.0,66,0.00,,,0.00,Rainwise IP-100,2013-11-04 03:47:00,
2013-11-03 22:53:00,26.6,18.0,29.66,NW,315,4.0,9.0,64,0.00,,,0.00,Rainwise IP-100,2013-11-04 03:53:00,
2013-11-03 22:58:00,26.3,16.0,29.67,NW,315,3.0,4.0,65,0.00,,,0.00,Rainwise IP-100,2013-11-04 03:58:00,
2013-11-03 23:03:00,26.2,16.0,29.67,WNW,292,1.0,6.0,65,0.00,,,0.00,Rainwise IP-100,2013-11-04 04:03:00,
2013-11-03 23:08:00,26.1,16.0,29.66,NW,315,6.0,7.0,66,0.00,,,0.00,Rainwise IP-100,2013-11-04 04:08:00,
2013-11-03 23:13:00,26.2,16.0,29.67,WNW,292,5.0,6.0,66,0.00,,,0.00,Rainwise IP-100,2013-11-04 04:13:00,
2013-11-03 23:18:00,26.3,16.0,29.66,NW,315,3.0,9.0,64,0.00,,,0.00,Rainwise IP-100,2013-11-04 04:18:00,
2013-11-03 23:23:00,26.5,18.0,29.66,WNW,292,4.0,7.0,64,0.00,,,0.00,Rainwise IP-100,2013-11-04 04:23:00,
2013-11-03 23:29:00,26.5,18.0,29.66,NW,315,4.0,7.0,64,0.00,,,0.00,Rainwise IP-100,2013-11-04 04:29:00,
2013-11-03 23:34:00,25.9,16.0,29.66,NW,315,0.0,5.0,65,0.00,,,0.00,Rainwise IP-100,2013-11-04 04:34:00,
2013-11-03 23:39:00,25.5,18.0,29.67,NW,315,1.0,6.0,68,0.00,,,0.00,Rainwise IP-100,2013-11-04 04:39:00,
2013-11-03 23:44:00,25.6,16.0,29.68,WNW,292,2.0,6.0,67,0.00,,,0.00,Rainwise IP-100,2013-11-04 04:44:00,
2013-11-03 23:49:00,25.7,16.0,29.68,WNW,292,4.0,6.0,67,0.00,,,0.00,Rainwise IP-100,2013-11-04 04:49:00,
2013-11-03 23:54:00,25.9,16.0,29.68,WNW,292,3.0,8.0,66,0.00,,,0.00,Rainwise IP-100,2013-11-04 04:54:00,
2013-11-03 23:59:00,25.9,16.0,29.69,NW,315,1.0,6.0,66,0.00,,,0.00,Rainwise IP-100,2013-11-04 04:59:00,